TimeEDT,TemperatureF,Dew PointF,Humidity,Sea Level PressureIn,VisibilityMPH,Wind Direction,Wind SpeedMPH,Gust SpeedMPH,PrecipitationIn,Events,Conditions,WindDirDegrees,DateUTC
12:53 AM,71.1,55.0,57,30.13,10.0,SSE,17.3,25.3,N/A,,Overcast,160,2013-04-28 04:53:00
1:53 AM,69.1,55.9,63,30.15,10.0,SSE,10.4,-,N/A,,Mostly Cloudy,150,2013-04-28 05:53:00
2:53 AM,66.0,57.0,73,30.15,10.0,South,3.5,-,N/A,,Scattered Clouds,180,2013-04-28 06:53:00
3:53 AM,64.0,57.0,78,30.14,10.0,SE,4.6,-,N/A,,Scattered Clouds,130,2013-04-28 07:53:00
4:53 AM,62.1,57.0,84,30.12,10.0,Calm,Calm,-,N/A,,Clear,0,2013-04-28 08:53:00
5:53 AM,61.0,57.9,90,30.12,10.0,East,4.6,-,N/A,,Clear,100,2013-04-28 09:53:00
6:53 AM,61.0,57.9,90,30.12,10.0,East,3.5,-,N/A,,Clear,90,2013-04-28 10:53:00
7:53 AM,63.0,60.1,90,30.15,9.0,ENE,3.5,-,N/A,,Clear,70,2013-04-28 11:53:00
8:53 AM,64.9,60.1,84,30.14,10.0,ESE,5.8,-,N/A,,Clear,110,2013-04-28 12:53:00
9:53 AM,69.1,62.1,78,30.15,10.0,Calm,Calm,-,N/A,,Overcast,0,2013-04-28 13:53:00
10:53 AM,73.9,62.1,66,30.13,10.0,South,9.2,-,N/A,,Mostly Cloudy,170,2013-04-28 14:53:00
11:53 AM,78.1,63.0,60,30.11,10.0,South,9.2,-,N/A,,Scattered Clouds,190,2013-04-28 15:53:00
12:53 PM,79.0,62.1,56,30.09,10.0,SSW,9.2,20.7,N/A,,Scattered Clouds,210,2013-04-28 16:53:00
1:53 PM,80.1,62.1,54,30.06,10.0,SSW,9.2,-,N/A,,Overcast,210,2013-04-28 17:53:00
2:53 PM,80.1,62.1,54,30.03,10.0,South,6.9,-,N/A,,Mostly Cloudy,170,2013-04-28 18:53:00
3:08 PM,73.4,66.2,78,30.04,3.0,SW,15.0,24.2,0.02,Rain-Thunderstorm,Heavy Thunderstorms and Rain,230,2013-04-28 19:08:00
3:16 PM,69.8,66.2,88,30.03,1.0,WSW,10.4,23.0,0.18,Rain-Thunderstorm,Heavy Thunderstorms and Rain,250,2013-04-28 19:16:00
3:23 PM,71.6,66.2,83,30.03,4.0,WNW,8.1,-,0.18,Rain-Thunderstorm,Light Thunderstorms and Rain,290,2013-04-28 19:23:00
3:50 PM,75.2,69.8,83,30.01,10.0,West,4.6,-,0.18,,Partly Cloudy,260,2013-04-28 19:50:00
3:53 PM,75.0,66.9,76,30.01,10.0,West,3.5,-,0.18,,Mostly Cloudy,270,2013-04-28 19:53:00
4:53 PM,73.9,68.0,82,30.00,10.0,WNW,4.6,-,N/A,Thunderstorm,Thunderstorm,300,2013-04-28 20:53:00
5:12 PM,71.6,66.2,83,30.01,10.0,WNW,10.4,-,N/A,,Clear,300,2013-04-28 21:12:00
5:53 PM,70.0,66.0,87,30.01,10.0,WNW,10.4,-,N/A,,Partly Cloudy,290,2013-04-28 21:53:00
6:53 PM,69.1,66.0,90,30.01,10.0,WNW,3.5,-,N/A,,Mostly Cloudy,300,2013-04-28 22:53:00
7:53 PM,69.1,66.0,90,30.00,10.0,Calm,Calm,-,0.00,,Overcast,0,2013-04-28 23:53:00
8:53 PM,66.9,64.9,93,30.01,10.0,Calm,Calm,-,N/A,,Clear,0,2013-04-29 00:53:00
9:53 PM,66.0,64.9,96,30.02,10.0,Calm,Calm,-,N/A,,Clear,0,2013-04-29 01:53:00
10:53 PM,66.0,64.9,96,30.04,9.0,Calm,Calm,-,N/A,,Clear,0,2013-04-29 02:53:00
11:53 PM,64.9,64.0,97,30.04,8.0,Calm,Calm,-,N/A,,Clear,0,2013-04-29 03:53:00